^^
Saratoga-Weather Station Historical Data
Daily Summary for August 10, 2022 Units:  Metric    English   Both
Daily Weekly Monthly Yearly Custom
  High: Low: Average:
Temperature: 31.6 °C 18.3 °C 25.1 °C
Dew Point: 12.6 °C 8.3 °C 10.6 °C
Humidity: 63% 24% 42%
Wind Speed: 14.3km/h 0km/h 3.3km/h
Wind Gust: 22.5km/h - -
Wind- - SE
Pressure: 1022.0 hPa 1018.3 hPa -
Precipitation: 0.0 mm    
Historical Graphs
 
 
Tabular Data for August 10, 2022
Time Temperature Dew Point Pressure Wind Wind Speed Wind Gust Humidity Rainfall Rate (Hourly) solar
00:04 22.8 °C 10.9 °C 1021.7 hPa WSW 3.2 km/h 6.4 km/h 47% 0.0 mm 0 W/m2
00:09 22.8 °C 10.9 °C 1021.7 hPa WSW 4.7 km/h 6.4 km/h 47% 0.0 mm 0 W/m2
00:14 22.8 °C 11.2 °C 1021.7 hPa West 4.7 km/h 4.8 km/h 48% 0.0 mm 0 W/m2
00:19 22.8 °C 11.2 °C 1021.7 hPa West 3.2 km/h 4.8 km/h 48% 0.0 mm 0 W/m2
00:24 22.7 °C 11.1 °C 1021.7 hPa WSW 4.7 km/h 4.8 km/h 48% 0.0 mm 0 W/m2
00:29 22.6 °C 11.3 °C 1021.7 hPa West 1.4 km/h 1.6 km/h 49% 0.0 mm 0 W/m2
00:34 22.5 °C 11.3 °C 1021.7 hPa NW 1.4 km/h 3.2 km/h 49% 0.0 mm 0 W/m2
00:39 22.4 °C 11.5 °C 1021.7 hPa West 1.4 km/h 4.8 km/h 50% 0.0 mm 0 W/m2
00:44 22.2 °C 11.6 °C 1021.7 hPa SW 1.4 km/h 3.2 km/h 51% 0.0 mm 0 W/m2
00:49 22.1 °C 11.8 °C 1021.7 hPa WNW 1.4 km/h 3.2 km/h 52% 0.0 mm 0 W/m2
00:54 21.9 °C 11.6 °C 1021.7 hPa WSW 3.2 km/h 4.8 km/h 52% 0.0 mm 0 W/m2
00:59 21.9 °C 11.9 °C 1021.7 hPa Calm   3.2 km/h 53% 0.0 mm 0 W/m2
01:04 21.9 °C 11.9 °C 1021.7 hPa West 3.2 km/h 3.2 km/h 53% 0.0 mm 0 W/m2
01:09 21.8 °C 11.8 °C 1021.7 hPa Calm   3.2 km/h 53% 0.0 mm 0 W/m2
01:14 21.7 °C 12 °C 1021.7 hPa West 3.2 km/h 4.8 km/h 54% 0.0 mm 0 W/m2
01:19 21.7 °C 12 °C 1021.7 hPa WSW 1.4 km/h 3.2 km/h 54% 0.0 mm 0 W/m2
01:25 21.6 °C 12.2 °C 1021.7 hPa SW 1.4 km/h 6.4 km/h 55% 0.0 mm 0 W/m2
01:30 21.6 °C 12.2 °C 1021.7 hPa SW 1.4 km/h 4.8 km/h 55% 0.0 mm 0 W/m2
01:35 21.5 °C 12.1 °C 1021.7 hPa WSW 3.2 km/h 4.8 km/h 55% 0.0 mm 0 W/m2
01:40 21.5 °C 12.1 °C 1021.7 hPa WSW 3.2 km/h 3.2 km/h 55% 0.0 mm 0 W/m2
01:45 21.4 °C 12.3 °C 1021.7 hPa WSW 3.2 km/h 3.2 km/h 56% 0.0 mm 0 W/m2
01:50 21.3 °C 12.2 °C 1021.7 hPa WSW 4.7 km/h 4.8 km/h 56% 0.0 mm 0 W/m2
01:55 21.1 °C 12.2 °C 1021.7 hPa West 1.4 km/h 4.8 km/h 57% 0.0 mm 0 W/m2
02:00 21.2 °C 12.1 °C 1021.7 hPa Calm   1.6 km/h 56% 0.0 mm 0 W/m2
02:05 21.2 °C 12.1 °C 1021.7 hPa WSW 3.2 km/h 4.8 km/h 56% 0.0 mm 0 W/m2
02:10 21.2 °C 12.1 °C 1021.7 hPa Calm   3.2 km/h 56% 0.0 mm 0 W/m2
02:15 21.2 °C 12.1 °C 1021.7 hPa Calm   6.4 km/h 56% 0.0 mm 0 W/m2
02:20 21.3 °C 12.2 °C 1021.7 hPa West 1.4 km/h 3.2 km/h 56% 0.0 mm 0 W/m2
02:25 21.2 °C 12.3 °C 1021.3 hPa Calm   4.8 km/h 57% 0.0 mm 0 W/m2
02:30 21.1 °C 12.2 °C 1021.7 hPa Calm   4.8 km/h 57% 0.0 mm 0 W/m2
02:35 20.9 °C 12.3 °C 1021.7 hPa WSW 3.2 km/h 3.2 km/h 58% 0.0 mm 0 W/m2
02:40 20.7 °C 12.4 °C 1021.3 hPa Calm   1.6 km/h 59% 0.0 mm 0 W/m2
02:45 20.4 °C 12.1 °C 1021.7 hPa Calm   1.6 km/h 59% 0.0 mm 0 W/m2
02:50 20.3 °C 12.3 °C 1021.3 hPa WSW 1.4 km/h 3.2 km/h 60% 0.0 mm 0 W/m2
02:55 20.2 °C 12.2 °C 1021.3 hPa Calm   1.6 km/h 60% 0.0 mm 0 W/m2
03:00 20.1 °C 12.3 °C 1021.3 hPa SSW 1.4 km/h 4.8 km/h 61% 0.0 mm 0 W/m2
03:05 19.9 °C 12.2 °C 1021.3 hPa Calm   3.2 km/h 61% 0.0 mm 0 W/m2
03:10 19.8 °C 12.1 °C 1021.3 hPa SSW 1.4 km/h 4.8 km/h 61% 0.0 mm 0 W/m2
03:15 19.7 °C 12 °C 1021.3 hPa Calm   1.6 km/h 61% 0.0 mm 0 W/m2
03:20 19.6 °C 12.1 °C 1021.3 hPa SSW 1.4 km/h 1.6 km/h 62% 0.0 mm 0 W/m2
03:25 19.6 °C 12.1 °C 1021.3 hPa SSW 1.4 km/h 3.2 km/h 62% 0.0 mm 0 W/m2
03:30 19.5 °C 12 °C 1021.3 hPa SSW 1.4 km/h 1.6 km/h 62% 0.0 mm 0 W/m2
03:35 19.4 °C 11.9 °C 1021.3 hPa SSW 1.4 km/h 3.2 km/h 62% 0.0 mm 0 W/m2
03:40 19.3 °C 11.8 °C 1021.3 hPa SSW 3.2 km/h 3.2 km/h 62% 0.0 mm 0 W/m2
03:45 19.3 °C 11.8 °C 1021.3 hPa SSW 3.2 km/h 3.2 km/h 62% 0.0 mm 0 W/m2
03:50 19.2 °C 11.7 °C 1021.3 hPa Calm   3.2 km/h 62% 0.0 mm 0 W/m2
03:55 19.2 °C 11.7 °C 1021.3 hPa SSW 1.4 km/h 3.2 km/h 62% 0.0 mm 0 W/m2
04:00 19.1 °C 11.6 °C 1021.3 hPa Calm   3.2 km/h 62% 0.0 mm 0 W/m2
04:05 19 °C 11.6 °C 1021.3 hPa Calm   1.6 km/h 62% 0.0 mm 0 W/m2
04:10 18.9 °C 11.7 °C 1021.3 hPa Calm   4.8 km/h 63% 0.0 mm 0 W/m2
04:15 18.8 °C 11.4 °C 1021.3 hPa Calm   4.8 km/h 62% 0.0 mm 0 W/m2
04:20 18.8 °C 11.6 °C 1021.3 hPa SSW 3.2 km/h 3.2 km/h 63% 0.0 mm 0 W/m2
04:25 18.8 °C 11.4 °C 1021.3 hPa SSW 1.4 km/h 4.8 km/h 62% 0.0 mm 0 W/m2
04:30 18.7 °C 11.3 °C 1021.3 hPa SSW 1.4 km/h 1.6 km/h 62% 0.0 mm 0 W/m2
04:35 18.7 °C 11.3 °C 1021.3 hPa SSW 1.4 km/h 1.6 km/h 62% 0.0 mm 0 W/m2
04:40 18.7 °C 11 °C 1021.3 hPa SW 1.4 km/h 1.6 km/h 61% 0.0 mm 0 W/m2
04:45 18.8 °C 11.4 °C 1021.3 hPa Calm   4.8 km/h 62% 0.0 mm 0 W/m2
04:50 18.9 °C 11.2 °C 1021.3 hPa SW 3.2 km/h 3.2 km/h 61% 0.0 mm 0 W/m2
04:55 18.8 °C 11.1 °C 1021.3 hPa SW 1.4 km/h 4.8 km/h 61% 0.0 mm 0 W/m2
05:00 18.7 °C 11 °C 1021.3 hPa SW 1.4 km/h 3.2 km/h 61% 0.0 mm 0 W/m2
05:05 18.7 °C 11.3 °C 1021.3 hPa WSW 1.4 km/h 1.6 km/h 62% 0.0 mm 0 W/m2
05:10 18.7 °C 11 °C 1021.3 hPa WSW 1.4 km/h 3.2 km/h 61% 0.0 mm 0 W/m2
05:15 18.6 °C 10.9 °C 1021.3 hPa WSW 1.4 km/h 1.6 km/h 61% 0.0 mm 0 W/m2
05:20 18.7 °C 11 °C 1021.3 hPa Calm   3.2 km/h 61% 0.0 mm 0 W/m2
05:25 18.7 °C 11 °C 1021.3 hPa West 1.4 km/h 4.8 km/h 61% 0.0 mm 0 W/m2
05:30 18.7 °C 11 °C 1021.3 hPa Calm   3.2 km/h 61% 0.0 mm 0 W/m2
05:35 18.6 °C 10.9 °C 1021.3 hPa West 1.4 km/h 4.8 km/h 61% 0.0 mm 0 W/m2
05:40 18.5 °C 10.8 °C 1021.3 hPa SW 1.4 km/h 4.8 km/h 61% 0.0 mm 0 W/m2
05:45 18.4 °C 11 °C 1021.3 hPa Calm   1.6 km/h 62% 0.0 mm 0 W/m2
05:50 18.6 °C 10.9 °C 1021.3 hPa Calm   4.8 km/h 61% 0.0 mm 0 W/m2
05:55 18.6 °C 10.9 °C 1021.3 hPa Calm   3.2 km/h 61% 0.0 mm 0 W/m2
06:00 18.6 °C 10.9 °C 1021.3 hPa Calm   1.6 km/h 61% 0.0 mm 0 W/m2
06:05 18.6 °C 10.7 °C 1021.3 hPa WSW 1.4 km/h 1.6 km/h 60% 0.0 mm 0 W/m2
06:10 18.6 °C 10.9 °C 1021.3 hPa WSW 1.4 km/h 3.2 km/h 61% 0.0 mm 0 W/m2
06:15 18.6 °C 10.7 °C 1021.3 hPa Calm   3.2 km/h 60% 0.0 mm 0 W/m2
06:20 18.5 °C 10.8 °C 1021.3 hPa WSW 1.4 km/h 3.2 km/h 61% 0.0 mm 0 W/m2
06:26 18.4 °C 10.7 °C 1021.3 hPa Calm   3.2 km/h 61% 0.0 mm 5 W/m2
06:31 18.3 °C 10.9 °C 1021.7 hPa WSW 1.4 km/h 3.2 km/h 62% 0.0 mm 7 W/m2
06:36 18.3 °C 10.6 °C 1021.7 hPa Calm   1.6 km/h 61% 0.0 mm 9 W/m2
06:41 18.3 °C 10.6 °C 1021.7 hPa WSW 3.2 km/h 3.2 km/h 61% 0.0 mm 12 W/m2
06:46 18.3 °C 10.6 °C 1021.7 hPa Calm   3.2 km/h 61% 0.0 mm 14 W/m2
06:51 18.3 °C 10.6 °C 1021.7 hPa NW 3.2 km/h 4.8 km/h 61% 0.0 mm 16 W/m2
06:56 18.5 °C 10.6 °C 1021.7 hPa North 1.4 km/h 3.2 km/h 60% 0.0 mm 18 W/m2
07:01 18.8 °C 10.6 °C 1021.7 hPa West 3.2 km/h 4.8 km/h 59% 0.0 mm 19 W/m2
07:06 18.9 °C 10.5 °C 1021.7 hPa Calm   3.2 km/h 58% 0.0 mm 21 W/m2
07:11 19.1 °C 10.6 °C 1021.7 hPa Calm   3.2 km/h 58% 0.0 mm 23 W/m2
07:16 19.2 °C 10.7 °C 1021.7 hPa Calm   3.2 km/h 58% 0.0 mm 25 W/m2
07:21 19.3 °C 10.6 °C 1021.7 hPa North 3.2 km/h 6.4 km/h 57% 0.0 mm 26 W/m2
07:26 19.4 °C 10.7 °C 1021.7 hPa Calm   8 km/h 57% 0.0 mm 26 W/m2
07:31 19.4 °C 10.7 °C 1021.7 hPa Calm   3.2 km/h 57% 0.0 mm 67 W/m2
07:36 19.6 °C 10.8 °C 1021.7 hPa SW 4.7 km/h 8 km/h 57% 0.0 mm 88 W/m2
07:41 19.8 °C 10.8 °C 1021.7 hPa Calm     56% 0.0 mm 100 W/m2
07:46 20.2 °C 10.9 °C 1021.7 hPa ESE 1.4 km/h 4.8 km/h 55% 0.0 mm 116 W/m2
07:51 20.5 °C 11.1 °C 1021.7 hPa NW 4.7 km/h 4.8 km/h 55% 0.0 mm 130 W/m2
07:56 20.7 °C 10.8 °C 1021.7 hPa Calm   4.8 km/h 53% 0.0 mm 144 W/m2
08:01 20.9 °C 11 °C 1021.7 hPa NNE 1.4 km/h 4.8 km/h 53% 0.0 mm 158 W/m2
08:06 21.1 °C 10.9 °C 1021.7 hPa Calm   3.2 km/h 52% 0.0 mm 176 W/m2
08:11 21.4 °C 11.1 °C 1022.0 hPa ENE 3.2 km/h 4.8 km/h 52% 0.0 mm 190 W/m2
08:16 21.6 °C 11 °C 1022.0 hPa East 3.2 km/h 4.8 km/h 51% 0.0 mm 149 W/m2
08:21 21.7 °C 11.1 °C 1022.0 hPa NW 3.2 km/h 4.8 km/h 51% 0.0 mm 79 W/m2
08:26 21.6 °C 11 °C 1022.0 hPa NW 3.2 km/h 4.8 km/h 51% 0.0 mm 44 W/m2
08:31 21.6 °C 11 °C 1022.0 hPa West 1.4 km/h 6.4 km/h 51% 0.0 mm 44 W/m2
08:36 21.7 °C 11.1 °C 1022.0 hPa NNE 6.4 km/h 6.4 km/h 51% 0.0 mm 44 W/m2
08:41 21.9 °C 11.3 °C 1022.0 hPa ENE 1.4 km/h 6.4 km/h 51% 0.0 mm 44 W/m2
08:46 22.1 °C 11.2 °C 1022.0 hPa NNW 4.7 km/h 4.8 km/h 50% 0.0 mm 44 W/m2
08:51 22.3 °C 11.4 °C 1022.0 hPa Calm   4.8 km/h 50% 0.0 mm 44 W/m2
08:56 22.5 °C 11.6 °C 1022.0 hPa ENE 6.4 km/h 6.4 km/h 50% 0.0 mm 44 W/m2
09:01 22.8 °C 11.8 °C 1022.0 hPa Calm   3.2 km/h 50% 0.0 mm 44 W/m2
09:06 23 °C 11.4 °C 1022.0 hPa East 1.4 km/h 4.8 km/h 48% 0.0 mm 42 W/m2
09:11 23.1 °C 11.5 °C 1022.0 hPa North 3.2 km/h 6.4 km/h 48% 0.0 mm 46 W/m2
09:16 23.1 °C 11.5 °C 1022.0 hPa Calm   3.2 km/h 48% 0.0 mm 46 W/m2
09:21 23.2 °C 11.6 °C 1022.0 hPa NNE 1.4 km/h 4.8 km/h 48% 0.0 mm 44 W/m2
09:26 23.4 °C 11.8 °C 1022.0 hPa NNW 1.4 km/h 3.2 km/h 48% 0.0 mm 46 W/m2
09:31 23.7 °C 11.7 °C 1022.0 hPa East 1.4 km/h 8 km/h 47% 0.0 mm 46 W/m2
09:36 23.8 °C 11.5 °C 1022.0 hPa Calm   11.3 km/h 46% 0.0 mm 46 W/m2
09:41 23.8 °C 11.5 °C 1022.0 hPa NNE 1.4 km/h 4.8 km/h 46% 0.0 mm 47 W/m2
09:46 23.8 °C 11.8 °C 1022.0 hPa ESE 6.4 km/h 11.3 km/h 47% 0.0 mm 46 W/m2
09:51 24.1 °C 12.1 °C 1022.0 hPa ENE 3.2 km/h 14.5 km/h 47% 0.0 mm 47 W/m2
09:56 24.1 °C 11.8 °C 1022.0 hPa ESE 1.4 km/h 12.9 km/h 46% 0.0 mm 51 W/m2
10:01 24.3 °C 12.3 °C 1022.0 hPa NNE 9.7 km/h 9.7 km/h 47% 0.0 mm 51 W/m2
10:06 24.6 °C 11.9 °C 1022.0 hPa NNE 6.4 km/h 12.9 km/h 45% 0.0 mm 53 W/m2
10:11 24.9 °C 12.5 °C 1022.0 hPa East 7.9 km/h 9.7 km/h 46% 0.0 mm 239 W/m2
10:16 25.1 °C 12 °C 1022.0 hPa NNW 1.4 km/h 4.8 km/h 44% 0.0 mm 519 W/m2
10:21 25.3 °C 12.2 °C 1022.0 hPa NNE 1.4 km/h 9.7 km/h 44% 0.0 mm 536 W/m2
10:26 25.4 °C 12.3 °C 1022.0 hPa NNW 4.7 km/h 6.4 km/h 44% 0.0 mm 554 W/m2
10:31 25.7 °C 12.5 °C 1022.0 hPa NE 6.4 km/h 9.7 km/h 44% 0.0 mm 566 W/m2
10:36 26.1 °C 12.2 °C 1022.0 hPa East 9.7 km/h 11.3 km/h 42% 0.0 mm 575 W/m2
10:41 26.4 °C 12.1 °C 1022.0 hPa East 9.7 km/h 11.3 km/h 41% 0.0 mm 587 W/m2
10:46 26.6 °C 12.6 °C 1022.0 hPa NE 3.2 km/h 9.7 km/h 42% 0.0 mm 598 W/m2
10:51 26.7 °C 12.4 °C 1022.0 hPa NE 3.2 km/h 4.8 km/h 41% 0.0 mm 612 W/m2
10:56 27 °C 12.6 °C 1022.0 hPa NE 1.4 km/h 9.7 km/h 41% 0.0 mm 621 W/m2
11:01 27.3 °C 12.5 °C 1022.0 hPa NE 9.7 km/h 14.5 km/h 40% 0.0 mm 638 W/m2
11:06 27.2 °C 12.4 °C 1021.7 hPa NNE 4.7 km/h 6.4 km/h 40% 0.0 mm 645 W/m2
11:11 27.4 °C 12.6 °C 1021.7 hPa NE 14.3 km/h 17.7 km/h 40% 0.0 mm 654 W/m2
11:16 27.6 °C 12.4 °C 1021.7 hPa ENE 6.4 km/h 6.4 km/h 39% 0.0 mm 652 W/m2
11:21 27.8 °C 12.2 °C 1021.7 hPa East 1.4 km/h 11.3 km/h 38% 0.0 mm 673 W/m2
11:26 27.7 °C 11.3 °C 1021.7 hPa ESE 6.4 km/h 20.9 km/h 36% 0.0 mm 682 W/m2
11:31 27.8 °C 11.4 °C 1021.7 hPa SE 13 km/h 16.1 km/h 36% 0.0 mm 694 W/m2
11:36 28 °C 11.1 °C 1021.7 hPa SE 4.7 km/h 17.7 km/h 35% 0.0 mm 705 W/m2
11:41 28.2 °C 11.3 °C 1021.7 hPa ENE 6.4 km/h 16.1 km/h 35% 0.0 mm 712 W/m2
11:46 28.4 °C 11.5 °C 1021.3 hPa ESE 4.7 km/h 16.1 km/h 35% 0.0 mm 724 W/m2
11:51 28.3 °C 11.4 °C 1021.3 hPa East 11.1 km/h 19.3 km/h 35% 0.0 mm 735 W/m2
11:56 28.4 °C 11 °C 1021.3 hPa East 6.4 km/h 12.9 km/h 34% 0.0 mm 738 W/m2
12:01 28.6 °C 11.2 °C 1021.3 hPa ENE 9.7 km/h 19.3 km/h 34% 0.0 mm 745 W/m2
12:06 28.7 °C 11.3 °C 1021.3 hPa ENE 14.3 km/h 16.1 km/h 34% 0.0 mm 752 W/m2
12:11 28.7 °C 10.8 °C 1021.7 hPa SE 4.7 km/h 14.5 km/h 33% 0.0 mm 759 W/m2
12:16 28.7 °C 10.8 °C 1021.3 hPa East 4.7 km/h 16.1 km/h 33% 0.0 mm 768 W/m2
12:21 28.8 °C 10.9 °C 1021.3 hPa ESE 4.7 km/h 14.5 km/h 33% 0.0 mm 779 W/m2
12:26 28.9 °C 10.5 °C 1021.3 hPa NE 7.9 km/h 14.5 km/h 32% 0.0 mm 780 W/m2
12:31 28.9 °C 11 °C 1021.3 hPa ENE 6.4 km/h 16.1 km/h 33% 0.0 mm 789 W/m2
12:36 29 °C 11.1 °C 1021.3 hPa NE 4.7 km/h 11.3 km/h 33% 0.0 mm 800 W/m2
12:41 29.2 °C 11.3 °C 1021.0 hPa SE 4.7 km/h 16.1 km/h 33% 0.0 mm 800 W/m2
12:46 29.4 °C 11 °C 1021.3 hPa ENE 4.7 km/h 11.3 km/h 32% 0.0 mm 802 W/m2
12:51 29.5 °C 10.6 °C 1021.3 hPa NE 7.9 km/h 16.1 km/h 31% 0.0 mm 807 W/m2
12:56 29.6 °C 11.2 °C 1021.0 hPa NE 6.4 km/h 16.1 km/h 32% 0.0 mm 809 W/m2
13:01 29.6 °C 11.2 °C 1021.0 hPa ESE 9.7 km/h 12.9 km/h 32% 0.0 mm 810 W/m2
13:06 29.8 °C 10.4 °C 1021.0 hPa ENE 3.2 km/h 19.3 km/h 30% 0.0 mm 816 W/m2
13:11 29.5 °C 10.6 °C 1021.0 hPa NE 11.1 km/h 20.9 km/h 31% 0.0 mm 816 W/m2
13:16 29.4 °C 10.5 °C 1021.0 hPa SE 3.2 km/h 14.5 km/h 31% 0.0 mm 817 W/m2
13:21 29.7 °C 10.8 °C 1020.7 hPa NE 7.9 km/h 20.9 km/h 31% 0.0 mm 824 W/m2
13:26 29.7 °C 10.8 °C 1020.7 hPa ESE 3.2 km/h 9.7 km/h 31% 0.0 mm 830 W/m2
13:31 29.9 °C 10.4 °C 1020.7 hPa SE 6.4 km/h 19.3 km/h 30% 0.0 mm 835 W/m2
13:36 30.1 °C 10.6 °C 1020.7 hPa ENE 3.2 km/h 8 km/h 30% 0.0 mm 817 W/m2
13:41 29.9 °C 10.4 °C 1020.7 hPa NE 7.9 km/h 16.1 km/h 30% 0.0 mm 830 W/m2
13:46 29.8 °C 10.4 °C 1020.7 hPa NE 9.7 km/h 14.5 km/h 30% 0.0 mm 831 W/m2
13:51 29.7 °C 10.3 °C 1020.7 hPa South 4.7 km/h 11.3 km/h 30% 0.0 mm 830 W/m2
13:56 29.9 °C 10.9 °C 1020.7 hPa ENE 7.9 km/h 22.5 km/h 31% 0.0 mm 828 W/m2
14:01 30.1 °C 10.6 °C 1020.7 hPa NE 7.9 km/h 14.5 km/h 30% 0.0 mm 826 W/m2
14:06 29.9 °C 9.9 °C 1020.7 hPa East 4.7 km/h 19.3 km/h 29% 0.0 mm 826 W/m2
14:11 29.8 °C 10.4 °C 1020.7 hPa North 7.9 km/h 14.5 km/h 30% 0.0 mm 828 W/m2
14:16 30.1 °C 10.6 °C 1020.3 hPa SE 4.7 km/h 6.4 km/h 30% 0.0 mm 828 W/m2
14:21 30.2 °C 11.2 °C 1020.3 hPa East 13 km/h 12.9 km/h 31% 0.0 mm 821 W/m2
14:26 30.3 °C 10.8 °C 1020.3 hPa ESE 4.7 km/h 12.9 km/h 30% 0.0 mm 821 W/m2
14:31 30.5 °C 10.5 °C 1020.7 hPa East 6.4 km/h 14.5 km/h 29% 0.0 mm 823 W/m2
14:36 30.4 °C 9.8 °C 1020.3 hPa NW 1.4 km/h 8 km/h 28% 0.0 mm 819 W/m2
14:41 30.4 °C 10.4 °C 1020.3 hPa SE 3.2 km/h 11.3 km/h 29% 0.0 mm 821 W/m2
14:46 30.5 °C 9.9 °C 1020.3 hPa ESE 3.2 km/h 17.7 km/h 28% 0.0 mm 826 W/m2
14:51 30.6 °C 10.5 °C 1020.0 hPa ENE 7.9 km/h 9.7 km/h 29% 0.0 mm 819 W/m2
14:56 30.7 °C 10.1 °C 1020.0 hPa ENE 3.2 km/h 9.7 km/h 28% 0.0 mm 812 W/m2
15:01 30.7 °C 10.1 °C 1020.0 hPa ESE 11.1 km/h 14.5 km/h 28% 0.0 mm 807 W/m2
15:06 30.6 °C 10.5 °C 1020.0 hPa SE 4.7 km/h 11.3 km/h 29% 0.0 mm 800 W/m2
15:11 30.6 °C 10 °C 1020.0 hPa East 6.4 km/h 19.3 km/h 28% 0.0 mm 800 W/m2
15:16 30.5 °C 9.9 °C 1020.0 hPa ENE 7.9 km/h 17.7 km/h 28% 0.0 mm 796 W/m2
15:21 30.4 °C 10.4 °C 1019.6 hPa ENE 4.7 km/h 14.5 km/h 29% 0.0 mm 789 W/m2
15:26 30.6 °C 10 °C 1019.6 hPa ENE 14.3 km/h 14.5 km/h 28% 0.0 mm 779 W/m2
15:31 30.7 °C 10.1 °C 1019.6 hPa ESE 4.7 km/h 14.5 km/h 28% 0.0 mm 773 W/m2
15:36 30.9 °C 10.3 °C 1019.6 hPa NE 4.7 km/h 11.3 km/h 28% 0.0 mm 768 W/m2
15:41 30.9 °C 9.7 °C 1019.6 hPa NNW 3.2 km/h 6.4 km/h 27% 0.0 mm 766 W/m2
15:46 31.1 °C 10.4 °C 1019.6 hPa ENE 3.2 km/h 12.9 km/h 28% 0.0 mm 756 W/m2
15:51 31.3 °C 10.1 °C 1019.3 hPa East 9.7 km/h 14.5 km/h 27% 0.0 mm 745 W/m2
15:56 31.2 °C 9.4 °C 1019.3 hPa NE 4.7 km/h 20.9 km/h 26% 0.0 mm 737 W/m2
16:01 31.1 °C 9.3 °C 1019.3 hPa NE 7.9 km/h 17.7 km/h 26% 0.0 mm 721 W/m2
16:06 31.2 °C 10 °C 1019.3 hPa ESE 4.7 km/h 20.9 km/h 27% 0.0 mm 717 W/m2
16:11 31.3 °C 10.1 °C 1019.3 hPa ENE 7.9 km/h 16.1 km/h 27% 0.0 mm 710 W/m2
16:16 31.2 °C 9.4 °C 1019.3 hPa NE 7.9 km/h 14.5 km/h 26% 0.0 mm 694 W/m2
16:21 31 °C 9.2 °C 1019.0 hPa ENE 6.4 km/h 11.3 km/h 26% 0.0 mm 687 W/m2
16:26 31.1 °C 9.9 °C 1019.3 hPa SE 3.2 km/h 11.3 km/h 27% 0.0 mm 677 W/m2
16:32 31.3 °C 9.5 °C 1019.0 hPa East 3.2 km/h 16.1 km/h 26% 0.0 mm 668 W/m2
16:37 31.3 °C 10.1 °C 1019.0 hPa ENE 7.9 km/h 8 km/h 27% 0.0 mm 657 W/m2
16:42 31.4 °C 9.6 °C 1019.0 hPa SE 4.7 km/h 11.3 km/h 26% 0.0 mm 650 W/m2
16:47 31.5 °C 9.7 °C 1019.0 hPa East 3.2 km/h 9.7 km/h 26% 0.0 mm 642 W/m2
16:52 31.6 °C 9.8 °C 1019.0 hPa East 6.4 km/h 11.3 km/h 26% 0.0 mm 631 W/m2
16:57 31.4 °C 9.6 °C 1019.0 hPa SE 3.2 km/h 11.3 km/h 26% 0.0 mm 622 W/m2
17:02 31.5 °C 9.7 °C 1019.0 hPa ENE 11.1 km/h 14.5 km/h 26% 0.0 mm 606 W/m2
17:07 31.4 °C 9.6 °C 1019.0 hPa ESE 4.7 km/h 14.5 km/h 26% 0.0 mm 592 W/m2
17:12 31.4 °C 9.6 °C 1019.0 hPa ESE 6.4 km/h 17.7 km/h 26% 0.0 mm 580 W/m2
17:17 31.5 °C 9.7 °C 1019.0 hPa NE 6.4 km/h 14.5 km/h 26% 0.0 mm 570 W/m2
17:22 31.4 °C 9.6 °C 1019.0 hPa ESE 13 km/h 12.9 km/h 26% 0.0 mm 557 W/m2
17:27 31.3 °C 9.5 °C 1019.0 hPa NE 3.2 km/h 8 km/h 26% 0.0 mm 547 W/m2
17:32 31.4 °C 9.6 °C 1019.0 hPa ENE 7.9 km/h 14.5 km/h 26% 0.0 mm 536 W/m2
17:37 31.3 °C 8.9 °C 1018.6 hPa NE 4.7 km/h 9.7 km/h 25% 0.0 mm 519 W/m2
17:42 31.4 °C 9.6 °C 1018.6 hPa East 4.7 km/h 6.4 km/h 26% 0.0 mm 506 W/m2
17:47 31.6 °C 9.8 °C 1018.6 hPa ESE 3.2 km/h 6.4 km/h 26% 0.0 mm 496 W/m2
17:52 31.6 °C 9.8 °C 1018.6 hPa East 6.4 km/h 9.7 km/h 26% 0.0 mm 480 W/m2
17:57 31.3 °C 9.5 °C 1018.6 hPa NE 3.2 km/h 11.3 km/h 26% 0.0 mm 464 W/m2
18:02 31.3 °C 9.5 °C 1018.6 hPa East 11.1 km/h 11.3 km/h 26% 0.0 mm 452 W/m2
18:07 31.2 °C 8.8 °C 1018.3 hPa NNE 4.7 km/h 16.1 km/h 25% 0.0 mm 439 W/m2
18:12 31.2 °C 9.4 °C 1018.6 hPa East 6.4 km/h 16.1 km/h 26% 0.0 mm 424 W/m2
18:17 31.3 °C 9.5 °C 1018.3 hPa NE 4.7 km/h 12.9 km/h 26% 0.0 mm 406 W/m2
18:22 31.4 °C 9 °C 1018.6 hPa ESE 4.7 km/h 16.1 km/h 25% 0.0 mm 396 W/m2
18:27 31.3 °C 8.3 °C 1018.3 hPa NNE 4.7 km/h 8 km/h 24% 0.0 mm 376 W/m2
18:32 31.2 °C 8.8 °C 1018.6 hPa NNE 6.4 km/h 12.9 km/h 25% 0.0 mm 366 W/m2
18:37 30.9 °C 9.2 °C 1018.6 hPa ESE 3.2 km/h 11.3 km/h 26% 0.0 mm 350 W/m2
18:42 30.9 °C 9.2 °C 1018.6 hPa ESE 1.4 km/h 6.4 km/h 26% 0.0 mm 338 W/m2
18:47 30.9 °C 9.2 °C 1018.6 hPa SE 3.2 km/h 4.8 km/h 26% 0.0 mm 323 W/m2
18:52 30.8 °C 9.1 °C 1018.6 hPa SE 1.4 km/h 12.9 km/h 26% 0.0 mm 308 W/m2
18:57 30.8 °C 9.1 °C 1018.6 hPa NE 6.4 km/h 9.7 km/h 26% 0.0 mm 287 W/m2
19:02 30.8 °C 8.5 °C 1018.6 hPa ESE 3.2 km/h 17.7 km/h 25% 0.0 mm 265 W/m2
19:07 30.7 °C 8.4 °C 1018.3 hPa ENE 3.2 km/h 6.4 km/h 25% 0.0 mm 137 W/m2
19:12 30.6 °C 8.9 °C 1018.3 hPa ESE 4.7 km/h 17.7 km/h 26% 0.0 mm 88 W/m2
19:17 30.5 °C 8.8 °C 1018.3 hPa SE 4.7 km/h 8 km/h 26% 0.0 mm 49 W/m2
19:22 30.3 °C 8.7 °C 1018.3 hPa East 7.9 km/h 9.7 km/h 26% 0.0 mm 46 W/m2
19:27 30.3 °C 9.2 °C 1018.3 hPa ENE 4.7 km/h 9.7 km/h 27% 0.0 mm 42 W/m2
19:32 30.2 °C 9.1 °C 1018.3 hPa ESE 11.1 km/h 12.9 km/h 27% 0.0 mm 40 W/m2
19:37 30.1 °C 9.6 °C 1018.3 hPa ENE 4.7 km/h 6.4 km/h 28% 0.0 mm 39 W/m2
19:42 30 °C 9.5 °C 1018.3 hPa SE 1.4 km/h 4.8 km/h 28% 0.0 mm 37 W/m2
19:47 30 °C 9 °C 1018.3 hPa ESE 4.7 km/h 6.4 km/h 27% 0.0 mm 37 W/m2
19:52 29.8 °C 9.3 °C 1018.3 hPa South 3.2 km/h 14.5 km/h 28% 0.0 mm 33 W/m2
19:57 29.7 °C 9.2 °C 1018.3 hPa SE 3.2 km/h 11.3 km/h 28% 0.0 mm 32 W/m2
20:02 29.6 °C 9.2 °C 1018.3 hPa East 3.2 km/h 14.5 km/h 28% 0.0 mm 30 W/m2
20:07 29.6 °C 9.7 °C 1018.3 hPa East 3.2 km/h 4.8 km/h 29% 0.0 mm 30 W/m2
20:12 29.4 °C 9 °C 1018.3 hPa SE 1.4 km/h 16.1 km/h 28% 0.0 mm 28 W/m2
20:17 29.2 °C 8.8 °C 1018.3 hPa East 3.2 km/h 8 km/h 28% 0.0 mm 25 W/m2
20:22 29.1 °C 9.3 °C 1018.3 hPa ESE 1.4 km/h 16.1 km/h 29% 0.0 mm 21 W/m2
20:27 28.8 °C 9 °C 1018.3 hPa SSE 4.7 km/h 4.8 km/h 29% 0.0 mm 19 W/m2
20:32 28.6 °C 9.3 °C 1018.3 hPa ESE 1.4 km/h 3.2 km/h 30% 0.0 mm 16 W/m2
20:37 28.3 °C 9.1 °C 1018.3 hPa ENE 3.2 km/h 11.3 km/h 30% 0.0 mm 14 W/m2
20:42 28 °C 9.3 °C 1018.6 hPa Calm   4.8 km/h 31% 0.0 mm 11 W/m2
20:47 27.8 °C 9.1 °C 1018.6 hPa SE 1.4 km/h 1.6 km/h 31% 0.0 mm 9 W/m2
20:52 27.4 °C 9.2 °C 1018.6 hPa Calm   1.6 km/h 32% 0.0 mm 7 W/m2
20:57 27.1 °C 10.3 °C 1018.6 hPa ENE 1.4 km/h 4.8 km/h 35% 0.0 mm 5 W/m2
21:02 26.7 °C 10 °C 1018.6 hPa Calm   1.6 km/h 35% 0.0 mm 0 W/m2
21:07 26.4 °C 9.3 °C 1018.6 hPa Calm   1.6 km/h 34% 0.0 mm 0 W/m2
21:12 26.1 °C 9.4 °C 1018.6 hPa Calm     35% 0.0 mm 0 W/m2
21:17 25.9 °C 8.8 °C 1018.6 hPa NE 1.4 km/h 9.7 km/h 34% 0.0 mm 0 W/m2
21:22 25.8 °C 9.2 °C 1018.6 hPa Calm   1.6 km/h 35% 0.0 mm 0 W/m2
21:27 25.7 °C 9.1 °C 1019.0 hPa ENE 4.7 km/h 9.7 km/h 35% 0.0 mm 0 W/m2
21:32 25.6 °C 9 °C 1018.6 hPa Calm   3.2 km/h 35% 0.0 mm 0 W/m2
21:37 25.4 °C 8.4 °C 1019.0 hPa NE 1.4 km/h 6.4 km/h 34% 0.0 mm 0 W/m2
21:42 25.3 °C 9.2 °C 1018.6 hPa Calm   1.6 km/h 36% 0.0 mm 0 W/m2
21:47 25.1 °C 9 °C 1019.0 hPa Calm   1.6 km/h 36% 0.0 mm 0 W/m2
21:52 24.9 °C 8.8 °C 1019.0 hPa ESE 3.2 km/h 3.2 km/h 36% 0.0 mm 0 W/m2
21:57 24.7 °C 8.6 °C 1019.0 hPa ENE 1.4 km/h 6.4 km/h 36% 0.0 mm 0 W/m2
22:02 24.7 °C 9 °C 1019.0 hPa Calm   1.6 km/h 37% 0.0 mm 0 W/m2
22:07 24.5 °C 9.2 °C 1019.0 hPa ENE 1.4 km/h 6.4 km/h 38% 0.0 mm 0 W/m2
22:12 24.3 °C 9.1 °C 1019.0 hPa Calm   1.6 km/h 38% 0.0 mm 0 W/m2
22:17 24.2 °C 9.4 °C 1019.0 hPa Calm   3.2 km/h 39% 0.0 mm 0 W/m2
22:22 23.9 °C 9.1 °C 1019.0 hPa Calm   1.6 km/h 39% 0.0 mm 0 W/m2
22:27 23.8 °C 9.4 °C 1019.0 hPa ESE 1.4 km/h 3.2 km/h 40% 0.0 mm 0 W/m2
22:32 23.6 °C 9.2 °C 1019.0 hPa Calm   1.6 km/h 40% 0.0 mm 0 W/m2
22:37 23.4 °C 9.4 °C 1019.0 hPa Calm     41% 0.0 mm 0 W/m2
22:42 23.1 °C 9.5 °C 1019.0 hPa Calm   1.6 km/h 42% 0.0 mm 0 W/m2
22:47 22.9 °C 9.3 °C 1019.0 hPa Calm     42% 0.0 mm 0 W/m2
22:52 22.7 °C 9.1 °C 1019.0 hPa Calm     42% 0.0 mm 0 W/m2
22:57 22.5 °C 9.6 °C 1019.0 hPa Calm     44% 0.0 mm 0 W/m2
23:02 22.3 °C 9.5 °C 1019.0 hPa Calm     44% 0.0 mm 0 W/m2
23:07 22.1 °C 9.6 °C 1019.0 hPa Calm     45% 0.0 mm 0 W/m2
23:12 21.9 °C 9.8 °C 1019.0 hPa Calm     46% 0.0 mm 0 W/m2
23:17 21.7 °C 9.6 °C 1019.0 hPa Calm     46% 0.0 mm 0 W/m2
23:23 21.5 °C 9.4 °C 1019.0 hPa Calm   1.6 km/h 46% 0.0 mm 0 W/m2
23:28 21.4 °C 9.3 °C 1019.0 hPa ESE 1.4 km/h 3.2 km/h 46% 0.0 mm 0 W/m2
23:33 21.3 °C 9.5 °C 1019.0 hPa Calm   1.6 km/h 47% 0.0 mm 0 W/m2
23:38 21.2 °C 9.4 °C 1019.0 hPa Calm   3.2 km/h 47% 0.0 mm 0 W/m2
23:43 21.1 °C 9.3 °C 1019.0 hPa Calm   1.6 km/h 47% 0.0 mm 0 W/m2
23:48 21 °C 9.6 °C 1019.0 hPa ESE 1.4 km/h 3.2 km/h 48% 0.0 mm 0 W/m2
23:53 20.9 °C 9.5 °C 1019.0 hPa ESE 1.4 km/h 1.6 km/h 48% 0.0 mm 0 W/m2
23:58 20.8 °C 9.4 °C 1019.0 hPa Calm   1.6 km/h 48% 0.0 mm 0 W/m2
Juneau County Weather
Compliments of Weather Underground - 4 mb